Regional Weather Roundup
Issued by NWS

Home | Current Version | Previous Version | Text Only | Print | Product List | Glossary On
Versions: 1 2 3 4 5 6 7 8 9 10 11 12 13 14 15 16 17 18 19 20 21 22 23 24 25 26 27 28 29 30 31 32 33 34 35 36 37 38 39 40 41 42 43 44 45 46 47 48 49 50
000
ASUS43 KLSX 271307
RWRMO

WEATHER SUMMARY FOR MISSOURI
NATIONAL WEATHER SERVICE SPRINGFIELD MO
700 AM CST TUE JAN 27 2015

NOTE: "FAIR" INDICATES FEW OR NO CLOUDS BELOW 12,000 FEET WITH NO
       SIGNIFICANT WEATHER AND/OR OBSTRUCTIONS TO VISIBILITY.
       CURRENT SKY AND/OR WEATHER CONDITIONS ARE NOT AVAILABLE FOR
       CHILLICOTHE AND FARMINGTON.

MOZ001>031-035>038-043-044-053-054-271400-
...NORTHERN AND WESTERN MISSOURI...

CITY           SKY/WX    TMP DP  RH WIND       PRES   REMARKS
KANSAS CTY INT CLEAR     36  32  85 NW5       30.12R
KANSAS C DTWN  CLEAR     32  29  88 CALM      30.13R
LEE`S SUMMIT   CLEAR     35  31  85 N3        30.12R
ST JOSEPH      FOG       23  22  96 CALM      30.14R VSB 1/2
CHILLICOTHE      N/A     29  26  89 CALM      30.14R
KIRKSVILLE     CLEAR     31  28  89 N5        30.09R WCI  26

$$
MOZ066>068-077>081-088>096-101>105-271400-
...SOUTHWEST MISSOURI...

CITY           SKY/WX    TMP DP  RH WIND       PRES   REMARKS
SPRINGFIELD    CLEAR     32  28  85 CALM      30.09R
JOPLIN         CLEAR     36  31  82 CALM      30.13R

$$
MOZ032>034-039>042-045>050-055>058-069>072-271400-
...CENTRAL MISSOURI...

CITY           SKY/WX    TMP DP  RH WIND       PRES   REMARKS
COLUMBIA       CLEAR     32  30  92 NW6       30.10R WCI  26
JEFFERSON CITY CLEAR     29  27  92 CALM      30.11R
ROLLA          CLEAR     34  30  85 NW7       30.06R WCI  28
SEDALIA        CLEAR     34  30  85 NW6       30.12R WCI  29
WHITEMAN AFB   CLEAR     33  30  88 NW3       30.11R
WARRENSBURG    CLEAR     32  30  93 N3        30.12R
OSAGE BEACH    CLEAR     37  30  75 CALM      30.10R

$$
MOZ051-052-059>065-271400-
...EAST CENTRAL MISSOURI...

CITY           SKY/WX    TMP DP  RH WIND       PRES   REMARKS
ST LOUIS INTL  MOCLDY    33  30  88 W5        30.07R WCI  29
SPIRIT OF STL  CLEAR     34  31  88 CALM      30.07R
ST CHARLES     CLEAR     34  32  92 W6        30.07R WCI  29

$$
MOZ072>076-082>087-097>100-106>115-271400-
...SOUTH CENTRAL AND SOUTHEAST MISSOURI...

CITY           SKY/WX    TMP DP  RH WIND       PRES   REMARKS
CAPE GIRARDEAU MOCLDY    31  30  96 W6        30.05R WCI  25
FARMINGTON     CLOUDY    39  34  81 MISG      30.08R
POPLAR BLUFF   CLEAR     34  30  85 NW7       30.06R WCI  28
WEST PLAINS    CLEAR     38  32  79 N6        30.07R

$$



USA.gov is the U.S. government's official web portal to all federal, state and local government web resources and services.